LPE0021 SKBO-SKAR

Flight info

Callsign LPE0021
Flight time 0h 26m
Altitude 18000
Route ISNOX2S ISNOX ISNOX1J
Aircraft A20N/M-SDE2E3FGHIRWXY/LB1

Departure

Time 2026-05-05 15:52
Airport El Dorado International Airport (SKBO)

Arrival

Time 2026-05-05 16:18
Airport El Eden Airport (SKAR)
Time Latitude Longitude Altitude Speed Heading
2026-05-05 14:58 4.69934 -74.14072 8372 ft 0 kts 223°
2026-05-05 15:25 4.69935 -74.14072 8378 ft 0 kts 223°
2026-05-05 15:26 4.69943 -74.14066 8372 ft 2 kts 205°
2026-05-05 15:27 4.69956 -74.14058 8372 ft 2 kts 216°
2026-05-05 15:27 4.69968 -74.14050 8372 ft 2 kts 212°
2026-05-05 15:27 4.69981 -74.14042 8372 ft 2 kts 213°
2026-05-05 15:27 4.69993 -74.14033 8372 ft 2 kts 213°
2026-05-05 15:28 4.70005 -74.14026 8372 ft 1 kts 221°
2026-05-05 15:28 4.70010 -74.14017 8372 ft 1 kts 280°
2026-05-05 15:28 4.70006 -74.14009 8372 ft 1 kts 326°
2026-05-05 15:28 4.70001 -74.14005 8372 ft 0 kts 308°
2026-05-05 15:35 4.70003 -74.14007 8372 ft 1 kts 308°
2026-05-05 15:35 4.70010 -74.14016 8372 ft 2 kts 308°
2026-05-05 15:35 4.70023 -74.14027 8372 ft 2 kts 329°
2026-05-05 15:36 4.70043 -74.14030 8372 ft 3 kts 30°
2026-05-05 15:36 4.70066 -74.14016 8372 ft 4 kts 31°
2026-05-05 15:36 4.70095 -74.13998 8372 ft 5 kts 34°
2026-05-05 15:36 4.70131 -74.13974 8372 ft 6 kts 20°
2026-05-05 15:37 4.70169 -74.13993 8371 ft 7 kts 311°
2026-05-05 15:37 4.70200 -74.14033 8371 ft 7 kts 307°
2026-05-05 15:37 4.70234 -74.14078 8371 ft 8 kts 307°
2026-05-05 15:37 4.70270 -74.14124 8371 ft 8 kts 308°
2026-05-05 15:38 4.70310 -74.14175 8372 ft 9 kts 307°
2026-05-05 15:38 4.70350 -74.14230 8371 ft 10 kts 305°
2026-05-05 15:38 4.70394 -74.14288 8371 ft 10 kts 307°
2026-05-05 15:38 4.70441 -74.14350 8371 ft 11 kts 307°
2026-05-05 15:39 4.70489 -74.14417 8371 ft 11 kts 296°
2026-05-05 15:39 4.70458 -74.14480 8371 ft 11 kts 219°
2026-05-05 15:39 4.70398 -74.14528 8372 ft 11 kts 218°
2026-05-05 15:39 4.70336 -74.14574 8372 ft 11 kts 216°
2026-05-05 15:40 4.70272 -74.14619 8372 ft 11 kts 215°
2026-05-05 15:40 4.70208 -74.14668 8372 ft 11 kts 218°
2026-05-05 15:40 4.70142 -74.14718 8372 ft 11 kts 217°
2026-05-05 15:40 4.70077 -74.14768 8372 ft 12 kts 217°
2026-05-05 15:41 4.70007 -74.14821 8372 ft 12 kts 218°
2026-05-05 15:41 4.69935 -74.14877 8371 ft 13 kts 217°
2026-05-05 15:41 4.69860 -74.14933 8371 ft 13 kts 231°
2026-05-05 15:41 4.69878 -74.15012 8371 ft 12 kts 307°
2026-05-05 15:42 4.69933 -74.15083 8371 ft 12 kts 307°
2026-05-05 15:42 4.69988 -74.15156 8371 ft 13 kts 306°
2026-05-05 15:42 4.70045 -74.15231 8370 ft 13 kts 307°
2026-05-05 15:42 4.70103 -74.15307 8370 ft 13 kts 307°
2026-05-05 15:43 4.70162 -74.15385 8370 ft 14 kts 307°
2026-05-05 15:43 4.70223 -74.15466 8370 ft 14 kts 305°
2026-05-05 15:43 4.70285 -74.15550 8368 ft 15 kts 308°
2026-05-05 15:43 4.70353 -74.15638 8367 ft 16 kts 307°
2026-05-05 15:44 4.70423 -74.15730 8365 ft 17 kts 307°
2026-05-05 15:44 4.70498 -74.15830 8363 ft 18 kts 307°
2026-05-05 15:44 4.70576 -74.15933 8362 ft 18 kts 307°
2026-05-05 15:44 4.70655 -74.16038 8359 ft 19 kts 307°
2026-05-05 15:45 4.70737 -74.16147 8358 ft 19 kts 307°
2026-05-05 15:45 4.70821 -74.16258 8356 ft 19 kts 309°
2026-05-05 15:45 4.70906 -74.16366 8356 ft 19 kts 306°
2026-05-05 15:45 4.70985 -74.16473 8355 ft 19 kts 307°
2026-05-05 15:46 4.71064 -74.16578 8355 ft 18 kts 307°
2026-05-05 15:46 4.71133 -74.16670 8355 ft 13 kts 307°
2026-05-05 15:46 4.71178 -74.16730 8356 ft 0 kts 307°
2026-05-05 15:47 4.71183 -74.16736 8356 ft 1 kts 307°
2026-05-05 15:48 4.71192 -74.16748 8356 ft 2 kts 307°
2026-05-05 15:48 4.71202 -74.16766 8356 ft 3 kts 288°
2026-05-05 15:48 4.71199 -74.16791 8356 ft 4 kts 243°
2026-05-05 15:48 4.71177 -74.16814 8355 ft 5 kts 221°
2026-05-05 15:49 4.71144 -74.16840 8355 ft 6 kts 216°
2026-05-05 15:49 4.71105 -74.16868 8355 ft 7 kts 216°
2026-05-05 15:49 4.71060 -74.16897 8355 ft 7 kts 197°
2026-05-05 15:49 4.71032 -74.16888 8355 ft 0 kts 127°
2026-05-05 15:50 4.71030 -74.16885 8355 ft 0 kts 129°
2026-05-05 15:50 4.71028 -74.16882 8355 ft 0 kts 129°
2026-05-05 15:51 4.71023 -74.16876 8355 ft 12 kts 129°
2026-05-05 15:51 4.70782 -74.16563 8354 ft 98 kts 127°
2026-05-05 15:51 4.70221 -74.15823 8365 ft 166 kts 127°
2026-05-05 15:51 4.69462 -74.14814 8781 ft 190 kts 127°
2026-05-05 15:52 4.68590 -74.13817 9601 ft 195 kts 142°
2026-05-05 15:52 4.67363 -74.13331 10523 ft 196 kts 176°
2026-05-05 15:52 4.66002 -74.13635 11163 ft 211 kts 212°
2026-05-05 15:52 4.64955 -74.14734 11505 ft 230 kts 236°
2026-05-05 15:53 4.64136 -74.16174 11876 ft 247 kts 239°
2026-05-05 15:53 4.63296 -74.17730 12366 ft 258 kts 239°
2026-05-05 15:53 4.62403 -74.19312 13011 ft 262 kts 238°
2026-05-05 15:53 4.61612 -74.20952 13627 ft 268 kts 249°
2026-05-05 15:54 4.61109 -74.22786 14081 ft 282 kts 257°
2026-05-05 15:54 4.60726 -74.24783 14426 ft 299 kts 259°
2026-05-05 15:54 4.60238 -74.26875 14727 ft 316 kts 252°
2026-05-05 15:54 4.59440 -74.28973 15006 ft 333 kts 244°
2026-05-05 15:55 4.58386 -74.31117 15266 ft 350 kts 242°
2026-05-05 15:55 4.57242 -74.33331 15501 ft 366 kts 242°
2026-05-05 15:55 4.56049 -74.35631 15738 ft 382 kts 242°
2026-05-05 15:55 4.54798 -74.38052 15937 ft 397 kts 242°
2026-05-05 15:56 4.53514 -74.40546 16132 ft 411 kts 242°
2026-05-05 15:56 4.52181 -74.43143 16339 ft 424 kts 242°
2026-05-05 15:56 4.50822 -74.45796 16669 ft 431 kts 243°
2026-05-05 15:56 4.49445 -74.48485 17149 ft 434 kts 242°
2026-05-05 15:57 4.48069 -74.51173 17655 ft 438 kts 243°
2026-05-05 15:57 4.46673 -74.53901 18044 ft 441 kts 243°
2026-05-05 15:57 4.45276 -74.56632 18145 ft 441 kts 243°
2026-05-05 15:57 4.43873 -74.59374 18144 ft 441 kts 243°
2026-05-05 15:58 4.42480 -74.62098 18125 ft 441 kts 243°
2026-05-05 15:58 4.41081 -74.64830 18083 ft 441 kts 243°
2026-05-05 15:58 4.39676 -74.67574 18098 ft 441 kts 243°
2026-05-05 15:58 4.38288 -74.70276 18090 ft 441 kts 243°
2026-05-05 15:59 4.36864 -74.73041 18059 ft 442 kts 243°
2026-05-05 15:59 4.35452 -74.75777 18062 ft 442 kts 243°
2026-05-05 15:59 4.34057 -74.78485 18035 ft 443 kts 242°
2026-05-05 15:59 4.32659 -74.81263 18012 ft 442 kts 246°
2026-05-05 16:00 4.31782 -74.84171 18000 ft 442 kts 261°
2026-05-05 16:00 4.31639 -74.87252 18008 ft 440 kts 276°
2026-05-05 16:00 4.32167 -74.90269 18013 ft 438 kts 284°
2026-05-05 16:00 4.32874 -74.93189 18018 ft 437 kts 285°
2026-05-05 16:01 4.33609 -74.96157 18022 ft 437 kts 285°
2026-05-05 16:01 4.34318 -74.99116 18027 ft 437 kts 284°
2026-05-05 16:01 4.35008 -75.02083 18039 ft 437 kts 284°
2026-05-05 16:01 4.35687 -75.05039 18057 ft 437 kts 284°
2026-05-05 16:02 4.36368 -75.08007 18075 ft 437 kts 284°
2026-05-05 16:02 4.37052 -75.10985 18087 ft 437 kts 284°
2026-05-05 16:02 4.37730 -75.13947 18110 ft 438 kts 284°
2026-05-05 16:02 4.38417 -75.16938 18136 ft 437 kts 284°
2026-05-05 16:03 4.39098 -75.19908 18148 ft 437 kts 284°
2026-05-05 16:03 4.39772 -75.22848 18167 ft 437 kts 284°
2026-05-05 16:03 4.40451 -75.25812 18195 ft 437 kts 284°
2026-05-05 16:03 4.41134 -75.28794 18081 ft 437 kts 284°
2026-05-05 16:04 4.41812 -75.31755 17518 ft 436 kts 284°
2026-05-05 16:04 4.42486 -75.34692 17042 ft 429 kts 284°
2026-05-05 16:04 4.43142 -75.37553 16689 ft 419 kts 284°
2026-05-05 16:04 4.43782 -75.40348 16384 ft 409 kts 284°
2026-05-05 16:05 4.44409 -75.43091 16123 ft 398 kts 284°
2026-05-05 16:05 4.45015 -75.45745 15920 ft 386 kts 284°
2026-05-05 16:05 4.45609 -75.48345 15757 ft 374 kts 284°
2026-05-05 16:05 4.46185 -75.50857 15519 ft 364 kts 284°
2026-05-05 16:06 4.46739 -75.53282 15297 ft 352 kts 283°
2026-05-05 16:06 4.47049 -75.55659 15177 ft 338 kts 270°
2026-05-05 16:06 4.46816 -75.57952 15166 ft 331 kts 259°
2026-05-05 16:06 4.46312 -75.60189 15156 ft 331 kts 256°
2026-05-05 16:07 4.45758 -75.62454 15143 ft 332 kts 256°
2026-05-05 16:07 4.45213 -75.64706 15124 ft 332 kts 256°
2026-05-05 16:07 4.44685 -75.66940 15110 ft 331 kts 257°
2026-05-05 16:07 4.44167 -75.69170 15101 ft 331 kts 257°
2026-05-05 16:08 4.43649 -75.71419 15078 ft 331 kts 257°
2026-05-05 16:08 4.43129 -75.73674 15072 ft 332 kts 257°
2026-05-05 16:08 4.42608 -75.75929 15044 ft 332 kts 257°
2026-05-05 16:08 4.42085 -75.78197 14726 ft 334 kts 257°
2026-05-05 16:09 4.41561 -75.80468 14313 ft 333 kts 257°
2026-05-05 16:09 4.41045 -75.82704 13924 ft 331 kts 256°
2026-05-05 16:09 4.40561 -75.84953 13520 ft 329 kts 262°
2026-05-05 16:09 4.40764 -75.87209 13075 ft 326 kts 291°
2026-05-05 16:10 4.41888 -75.89141 12694 ft 321 kts 307°
2026-05-05 16:10 4.43196 -75.90942 12342 ft 318 kts 307°
2026-05-05 16:10 4.44694 -75.92552 11913 ft 315 kts 328°
2026-05-05 16:10 4.46738 -75.93278 11540 ft 308 kts 358°
2026-05-05 16:11 4.48800 -75.92981 11158 ft 303 kts 24°
2026-05-05 16:11 4.53987 -75.89481 10015 ft 296 kts 36°
2026-05-05 16:12 4.55671 -75.88314 9647 ft 294 kts 35°
2026-05-05 16:12 4.58960 -75.86052 9294 ft 275 kts 35°
2026-05-05 16:13 4.63352 -75.83030 9175 ft 237 kts 37°
2026-05-05 16:13 4.64451 -75.81845 9027 ft 234 kts 69°
2026-05-05 16:13 4.64643 -75.80243 8676 ft 236 kts 101°
2026-05-05 16:14 4.63665 -75.77059 7903 ft 244 kts 107°
2026-05-05 16:14 4.62205 -75.73975 7049 ft 253 kts 140°
2026-05-05 16:15 4.58891 -75.73279 6397 ft 252 kts 192°
2026-05-05 16:15 4.55497 -75.74215 5783 ft 249 kts 194°
2026-05-05 16:16 4.52146 -75.74975 5184 ft 246 kts 192°
2026-05-05 16:16 4.48893 -75.75759 4503 ft 228 kts 194°
2026-05-05 16:17 4.45960 -75.76455 4021 ft 205 kts 194°
2026-05-05 16:17 4.44729 -75.76743 3996 ft 142 kts 194°
2026-05-05 16:18 4.43993 -75.76912 3971 ft 7 kts 255°
2026-05-05 16:18 4.44022 -75.76913 3973 ft 3 kts 17°
2026-05-05 16:18 4.44174 -75.76874 3978 ft 17 kts 13°
2026-05-05 16:19 4.44280 -75.76848 3981 ft 14 kts 14°
2026-05-05 16:19 4.44369 -75.76826 3984 ft 11 kts 13°
2026-05-05 16:19 4.44688 -75.76750 3995 ft 35 kts 13°
2026-05-05 16:20 4.45104 -75.76649 4003 ft 26 kts 17°
2026-05-05 16:20 4.45214 -75.76664 4004 ft 0 kts 303°
2026-05-05 16:22 4.45234 -75.76696 4004 ft 6 kts 303°
2026-05-05 16:22 4.45257 -75.76755 4004 ft 0 kts 284°
2026-05-05 16:23 4.45257 -75.76756 4004 ft 0 kts 284°